Jackpot

Texas Poker Multi Jackpot System

Kini Telah hadir Jackpot SUPER ROYAL FLUSH

Kini Telah hadir Jackpot 2000 (khusus table VIP keatas).

Ikutilah global jackpot yang tersedia di system kami, dengan system jackpot terbaru dan pertama di indonesia, anda dapat membeli jackpot dengan harga 100 rupiah saja dan menangkan hadiahnya hingga puluhan juta rupiah.

Jackpot bukanlah suatu keharusan untuk dibeli, namun kami memberikan suatu fitur tambahan untuk member tercinta dari www.pauspoker.com.

Terdapat tiga pilihan harga jackpot yang bisa anda beli yaitu :100,500,1000 dan 2000(khusus table VIP Keatas) rupiah.

Hadiah dari Multi jackpot system www.pauspoker.com

  1. full house x 10 harga jackpot yang anda beli.
      (contoh:anda membeli 1000 maka:1000 X10 = 10.000)
  2. four of kind x 250 harga jackpot yang anda beli
      (contoh:anda membeli 1000 maka:1000 X250 = 250.000)
  3. Straight flush x 1200
      (contoh:anda membeli 1000 maka:1000 X1200 = 1.200.000)
  4. Royal flush x 10000 harga jackpot yang anda beli
      (contoh:anda membeli 1000 maka:1000 X10000 = 10.000.000)
  5. SUPER ROYAL FLUSH x 30000 harga jackpot yang anda beli
      (contoh:anda membeli 1000 maka:1000 X30000 = 30.000.000)

Kondisi kartu

  1. full house adalah kondisi kartu dimana kartu anda dan kartu tengah dengan total 7 kartu bisa mendapatkan nilai 5 kartu dengan kombinasi 1 tris(three of kind) dan 1 pair, contoh 3 kartu 10 dan 2 kartu 5
  2. Four of kind adalah kondisi kartu dimana kartu anda dan kartu tengah dengan total 7 kartu bisa mendapatkan nilai 5 kartu dengan kombinasi 4 kartu yang sama jumlah dan 1 kartu apapun juga contoh anda mendapatkan 4 buah kartu angka 3 dan 1 kartu apapun.
  3. Staright flush adalah kondisi kartu dimana kartu anda dan kartu tengah dengan total 7 kartu bisa mendapatkan nilai 5 kartu dengan kombinasi seri / staright dengan kembang yang sama contoh : urutan kartu dari angka 5, 6, 7, 8 , 9 10 dengan kembang yg sama misalnya as hati
  4. Royal flush adalah kondisi kartu dimana kartu anda dan kartu tengah dengan total 7 kartu bisa mendapatkan nilai 5 kartu dengan kombinasi seri / staright dengan kembang yang sama tetapi kartu tersebut haruslah dimulai dari 10. contoh 10, Queen, Jack, King dan aces dengan kembang yang sama
  5. Super Royal flush adalah kondisi kartu dimana Kedua kartu anda digabung dengan 3 kartu pertama meja haruslah royal flush. contoh kartu anda 10,Queen kembang sama dan 3 kartu pertama meja adalah Jack, King dan aces dengan kembang yang sama

Demikian adalah penjelasan dari Multi Jackpot www.pauspoker.com terima kasih dan selamat bermain salam hoki dari kami

Texas Poker Jackpot Winner

TOP SUPER ROYAL FLUSH
No.TanggalNamaPriceWin
124/01 14:47MAOK88888Super Royal flush3,000,000
224/01 13:52KINGJUICEMSuper Royal flush30,000,000
324/01 13:35WARRIOR_GSuper Royal flush3,000,000
424/01 12:22KAISAR234Super Royal flush15,000,000
524/01 07:55THEWALKERSuper Royal flush3,000,000
TOP ROYAL FLUSH
No.TanggalNamaPriceWin
124/01 15:59KEONGDRAGRoyal flush5,000,000
224/01 15:21UNCECGABXERoyal flush1,000,000
324/01 14:28ASTANTO18Royal flush5,000,000
424/01 14:27VINO1989Royal flush5,000,000
524/01 14:27DIKA8910Royal flush20,000,000
TOP STRAIGHT FLUSH
No.TanggalNamaPriceWin
124/01 16:19ABANGREStraight Flush120,000
224/01 16:17TIMPLEKStraight Flush1,200,000
324/01 16:17BONDET58Straight Flush600,000
424/01 16:17S3V3N777Straight Flush1,200,000
524/01 16:14SHIRO008Straight Flush120,000
LATEST JACKPOT
No.TanggalNamaPriceWin
124/01 16:21B89DF30EFull House1,000
224/01 16:21NO_NA33Full House1,000
324/01 16:21ABULAISINFour Of A Kind125,000
424/01 16:21LINBULEFull House1,000
524/01 16:21CITYARENFull House10,000
624/01 16:21JALTOMPELFull House5,000
724/01 16:21ACHA2222Full House1,000
824/01 16:21VAVAVIAFull House10,000
924/01 16:21BCA4444Full House10,000
1024/01 16:21SETE88Full House1,000
1124/01 16:21BROWSISFull House1,000
1224/01 16:21BROCAL12Full House10,000
1324/01 16:21BONDET58Full House5,000
1424/01 16:21LADYS22Full House5,000
1524/01 16:21HASIL8Full House5,000
1624/01 16:21SHIVA_99Full House10,000
1724/01 16:21TALAKA_SFull House20,000
1824/01 16:21BORMELO007Full House5,000
1924/01 16:21ALS212RRFull House5,000
2024/01 16:21SALONIKIFull House5,000
2124/01 16:21DOBLEEEHFull House1,000
2224/01 16:21POKERA77Full House1,000
2324/01 16:21LEGEGFull House10,000
2424/01 16:21KECOT666Full House1,000
2524/01 16:21ASBUDI30Full House20,000
2624/01 16:21CA66Full House5,000
2724/01 16:21DARIONFull House10,000
2824/01 16:21BOHOLFull House5,000
2924/01 16:21T4D0013715Four Of A Kind125,000
3024/01 16:21BOWS90Full House5,000
3124/01 16:21TUANG4L4Full House1,000
3224/01 16:21ASAL_TOPFull House5,000
3324/01 16:21RCTI34Full House5,000
3424/01 16:21GUSTRYFull House1,000
3524/01 16:21D4V6V66TSQFull House5,000
3624/01 16:21DEVC82UUEFFull House1,000
3724/01 16:20DERRICKSFull House1,000
3824/01 16:20ISUR99Full House1,000
3924/01 16:20RATIHH19Full House5,000
4024/01 16:20VIVI98Full House1,000
4124/01 16:20DULRIQQFull House1,000
4224/01 16:20GYVAFull House1,000
4324/01 16:20UG9999Full House1,000
4424/01 16:20K1F2C39DZOFull House5,000
4524/01 16:20BEDULE33Full House10,000
4624/01 16:20B4YDEWFull House5,000
4724/01 16:20BEGENG89Full House1,000
4824/01 16:20GOG86OSFull House1,000
4924/01 16:20ANLI8831Full House1,000
5024/01 16:20RNBRE19Full House5,000

Domino Multi Jackpot System

Ikutilah global jackpot yang tersedia di system kami, dengan system jackpot terbaru dan pertama di indonesia, anda dapat membeli jackpot dengan harga 100 rupiah saja dan menangkan hadiahnya hingga puluhan juta rupiah.

Jackpot bukanlah suatu keharusan untuk dibeli, namun kami memberikan suatu fitur tambahan untuk member tercinta dari www.pauspoker.com.

Terdapat tiga pilihan harga jackpot yang bisa anda beli yaitu :100,500 dan 1000 rupiah.

Hadiah dari Multi jackpot system www.pauspoker.com

  1. Murni Kecil x 50 harga jackpot yang anda beli.
      (contoh:anda membeli 1000 maka:1000 X 50 = 50.000)
  2. Murni Besar x 50 harga jackpot yang anda beli
      (contoh:anda membeli 1000 maka:1000 X 50 = 50.000)
  3. BALAK x 100 harga jackpot yang anda beli
      (contoh:anda membeli 1000 maka:1000 X 100 = 100.000)
  4. ENAM DEWA x 6666 harga jackpot yang anda beli
      (contoh:anda membeli 1000 maka:1000 X 6666 = 6.666.000)

Demikian adalah penjelasan dari Multi Jackpot www.pauspoker.com terima kasih dan selamat bermain salam hoki dari kami

Domino Jackpot Winner

TOP ENAM DEWA
No.TanggalNamaPriceWin
124/01 15:05SAFANA00murni enam6,666,000
224/01 05:28SULTN99murni enam6,666,000
324/01 04:08KITTY995murni enam666,600
424/01 00:16TEMPEKTUOmurni enam3,333,000
523/01 23:59TM7ZINATMJmurni enam6,666,000
TOP BALAK
No.TanggalNamaPriceWin
124/01 16:15BERATBERSIbalak100,000
224/01 16:00OCUBET87balak50,000
324/01 15:59DEPIXbalak100,000
424/01 15:54IZZATIbalak10,000
524/01 15:37SANASINIOKbalak10,000
LATEST JACKPOT
No.TanggalNamaPriceWin
124/01 16:20TIMZZmurni besar5,000
224/01 16:20ZP9SPG56MBmurni kecil5,000
324/01 16:20IBU789murni besar50,000
424/01 16:19BEGONONOmurni kecil50,000
524/01 16:19W4NCOY362murni kecil25,000
624/01 16:19MIRDAD37murni besar25,000
724/01 16:17DJ9ONmurni kecil50,000
824/01 16:17ALIE80murni kecil50,000
924/01 16:16KOBUAYO9murni besar25,000
1024/01 16:15JUV3NTUS97murni besar25,000
1124/01 16:15BERATBERSIbalak100,000
1224/01 16:15QXYFE1XPHSmurni besar25,000
1324/01 16:14HJRRmurni kecil25,000
1424/01 16:14WEDYO11murni kecil25,000
1524/01 16:13CHILERRmurni kecil50,000
1624/01 16:13AOKI45murni kecil5,000
1724/01 16:13CAPIE89murni besar50,000
1824/01 16:12REZI78murni besar25,000
1924/01 16:12BARRI955murni kecil50,000
2024/01 16:12ZKRXWIVmurni besar50,000
2124/01 16:11CAPIE89murni kecil50,000
2224/01 16:11SAHAT98murni kecil5,000
2324/01 16:10ADIMAZ77murni kecil25,000
2424/01 16:10DANIES2001murni besar25,000
2524/01 16:09ABSRB4OHYJmurni besar50,000
2624/01 16:08ANJING28murni kecil25,000
2724/01 16:08NGANKOKmurni besar25,000
2824/01 16:07BTW985murni besar25,000
2924/01 16:05DIAZ75murni kecil25,000
3024/01 16:05LECONG777murni kecil25,000
3124/01 16:04KINK9090murni kecil25,000
3224/01 16:03BEGELAMANGmurni kecil25,000
3324/01 16:02CUAN1908murni kecil5,000
3424/01 16:01DAXUN66murni besar25,000
3524/01 16:00OCUBET87balak50,000
3624/01 16:00AGUS9194murni besar50,000
3724/01 16:00VKOOL99murni besar50,000
3824/01 16:00MADANAYU1murni besar5,000
3924/01 15:59AGUS9194murni kecil50,000
4024/01 15:59DEPIXbalak100,000
4124/01 15:58LHALEAmurni besar50,000
4224/01 15:57B7158B4Amurni kecil5,000
4324/01 15:56LECONG777murni besar25,000
4424/01 15:56UNGU8889murni besar5,000
4524/01 15:55ANDY84murni kecil50,000
4624/01 15:55DAXUN66murni besar25,000
4724/01 15:54IZZATIbalak10,000
4824/01 15:53U63POSLF9Fmurni kecil25,000
4924/01 15:51IZZATImurni besar5,000
5024/01 15:51DABLUNKmurni besar5,000

Ceme Multi Jackpot System

Jackpot dilihat dari gabungan kartu pemain dengan kartu bandar. Bandar harus membeli jackpot sebanyak jumlah player yang sedang duduk. Sebagai contoh bila terdapat 3 pemain duduk bermain, dan bandar memutuskan untuk membeli jackpot Rp 1.000, maka pada periode tersebut bandar akan membeli jackpot sebanyak 3xRp1.000 = Rp3.000.

Jackpot bukanlah suatu keharusan untuk dibeli, namun kami memberikan suatu fitur tambahan untuk member tercinta dari www.pauspoker.com.

Terdapat tiga pilihan harga jackpot yang bisa anda beli yaitu :100,500 dan 1000 rupiah.

Hadiah dari Multi jackpot system www.pauspoker.com

  1. Murni Kecil x 50 harga jackpot yang anda beli.
      (contoh:anda membeli 1000 maka:1000 X 50 = 50.000)
  2. Murni Besar x 50 harga jackpot yang anda beli
      (contoh:anda membeli 1000 maka:1000 X 50 = 50.000)
  3. BALAK x 200 harga jackpot yang anda beli
      (contoh:anda membeli 1000 maka:1000 X 200 = 200.000)
  4. ENAM DEWA x 6666 harga jackpot yang anda beli
      (contoh:anda membeli 1000 maka:1000 X 6666 = 6.666.000)

Demikian adalah penjelasan dari Multi Jackpot www.pauspoker.com terima kasih dan selamat bermain salam hoki dari kami

Ceme Jackpot Winner

TOP ENAM DEWA
No.TanggalNamaPriceWin
124/01 16:00FORTUNE60murni enam6,666,000
224/01 15:28MRJACK17murni enam3,333,000
324/01 15:13INDRAKHAmurni enam666,600
424/01 15:08VODKEIKZmurni enam666,600
524/01 13:51NAGAUTARAmurni enam6,666,000
TOP BALAK
No.TanggalNamaPriceWin
124/01 16:21ZENZA_9balak100,000
224/01 16:21CROTCH38balak20,000
324/01 16:21LEE90balak20,000
424/01 16:14CURRUT007balak200,000
524/01 16:14IRWANTBNbalak20,000
LATEST JACKPOT
No.TanggalNamaPriceWin
124/01 16:21ZENZA_9balak100,000
224/01 16:21BREDEL213murni besar25,000
324/01 16:21CROTCH38balak20,000
424/01 16:21PAGANmurni kecil50,000
524/01 16:21PAGANmurni kecil50,000
624/01 16:21BANJUL1murni kecil50,000
724/01 16:21LEE90balak20,000
824/01 16:20XPQLOVED56murni kecil5,000
924/01 16:20RAMAImurni kecil25,000
1024/01 16:20KIFLAN72murni kecil50,000
1124/01 16:20UNCONK99murni kecil25,000
1224/01 16:20MUEMANGmurni kecil50,000
1324/01 16:20ISTIMEWA69murni kecil25,000
1424/01 16:20YESIKmurni kecil50,000
1524/01 16:19DAYAT338murni kecil50,000
1624/01 16:19LEEMINHAU8murni kecil50,000
1724/01 16:19I03A2OMWYDmurni kecil5,000
1824/01 16:19UNCONK99murni kecil25,000
1924/01 16:18JIANKBmurni besar50,000
2024/01 16:18KMK9999murni kecil50,000
2124/01 16:18AJOTONJOmurni besar5,000
2224/01 16:18LEY87murni besar25,000
2324/01 16:18AJOTONJOmurni besar5,000
2424/01 16:18LANCER77murni kecil50,000
2524/01 16:18PVNWE2VLR5murni besar50,000
2624/01 16:17G3BEERRR99murni kecil50,000
2724/01 16:17ANCUL123murni kecil50,000
2824/01 16:17BERO89murni kecil25,000
2924/01 16:17TOMALBERTmurni kecil25,000
3024/01 16:17ARILANGmurni kecil5,000
3124/01 16:17RAKA1357murni kecil50,000
3224/01 16:17ABH072murni kecil50,000
3324/01 16:17ORAMOKALAHmurni besar50,000
3424/01 16:17DOLARAINGmurni besar50,000
3524/01 16:17ISTIMEWA69murni besar50,000
3624/01 16:17AHAHAE88murni kecil50,000
3724/01 16:17BJR333murni besar50,000
3824/01 16:17WIJAYA8777murni besar50,000
3924/01 16:17AMBONBONYmurni besar5,000
4024/01 16:17JACKMIKEmurni kecil50,000
4124/01 16:17BURNOK83murni kecil25,000
4224/01 16:17DWO584murni kecil50,000
4324/01 16:17GUNBSmurni kecil25,000
4424/01 16:16CUPPA88murni kecil5,000
4524/01 16:16AMBONBONYmurni kecil5,000
4624/01 16:16IYAK9murni kecil50,000
4724/01 16:15ZENZA_9murni kecil25,000
4824/01 16:15BONYBONmurni kecil5,000
4924/01 16:14CURRUT007balak200,000
5024/01 16:14IRWANTBNbalak20,000